Simultaneous Nadir Overpasses (SNOs) Predictions

Prediction of SNOs between GOES-17 and NOAA-19 Satellite Orbit:

Table of predicted SNOs for the next 14.0 days since TLE Epoch: 5/23/2025
Index Date Time (GOES-17) GOES-17 Lat,Lon NOAA-19 Lat,Lon Distance(km) Time Diff (sec)
1 05/24/2025 04:56:04 -0.02,-104.39 -0.58,-106.83 278.60 80
2 05/25/2025 04:40:47 -0.02,-104.39 0.13,-103.76 71.35 80
3 05/26/2025 04:28:09 -0.02,-104.39 0.84,-100.70 421.16 80
4 05/27/2025 16:59:16 0.01,-104.44 0.88,-108.17 425.98 80
5 05/28/2025 16:46:38 0.01,-104.44 0.18,-105.11 76.37 80
6 05/29/2025 16:36:41 0.00,-104.44 -0.53,-102.05 273.33 80
7 06/01/2025 04:55:25 0.00,-104.39 -0.48,-106.52 242.61 80
8 06/02/2025 04:40:07 0.00,-104.40 0.24,-103.46 107.70 80
9 06/03/2025 04:27:29 0.01,-104.40 0.91,-100.38 458.09 80
10 06/04/2025 16:58:37 -0.01,-104.47 0.78,-107.87 388.92 80
11 06/05/2025 16:45:59 -0.01,-104.47 0.07,-104.81 38.36 80
12 06/06/2025 16:36:02 -0.01,-104.48 -0.65,-101.75 312.17 80
